Previsão horária em Abiego

Hoje, 11 Abril, Domingo

Tempo Temperatura Precipitação Vento Pressão Humidade
00:00 +7°C° 0 mm 2 m/s 702 mmHg 90%
01:00 +8°C° 0.1 mm 1 m/s 702 mmHg 91%
02:00 +8°C° 0.1 mm 1 m/s 702 mmHg 91%
03:00 +7°C° 0.1 mm 1 m/s 702 mmHg 91%
04:00 +7°C° 0 mm 1 m/s 702 mmHg 91%
05:00 +7°C° 0 mm 1 m/s 702 mmHg 91%
06:00 +7°C° 0 mm 1 m/s 702 mmHg 90%
07:00 +9°C° 0 mm 1 m/s 702 mmHg 84%
08:00 +10°C° 0 mm 2 m/s 702 mmHg 78%
09:00 +13°C° 0 mm 2 m/s 703 mmHg 72%
10:00 +12°C° 0.7 mm 2 m/s 703 mmHg 78%
11:00 +10°C° 0.7 mm 2 m/s 703 mmHg 84%
12:00 +10°C° 0.7 mm 2 m/s 703 mmHg 90%
13:00 +10°C° 0.5 mm 2 m/s 703 mmHg 88%
14:00 +10°C° 0.5 mm 2 m/s 703 mmHg 86%
15:00 +10°C° 0.5 mm 2 m/s 703 mmHg 84%
16:00 +9°C° 0 mm 2 m/s 703 mmHg 84%
17:00 +9°C° 0 mm 2 m/s 704 mmHg 83%
18:00 +9°C° 0 mm 2 m/s 704 mmHg 82%
19:00 +8°C° 0 mm 3 m/s 705 mmHg 81%
20:00 +7°C° 0 mm 3 m/s 705 mmHg 80%
21:00 +5°C° 0 mm 3 m/s 706 mmHg 80%
22:00 +4°C° 0 mm 3 m/s 706 mmHg 79%
23:00 +3°C° 0 mm 3 m/s 707 mmHg 79%

Amanhã, 12 Abril, Segunda-feira

Tempo Temperatura Precipitação Vento Pressão Humidade
00:00 +1°C° 0 mm 4 m/s 707 mmHg 79%
01:00 +1°C° 0 mm 3 m/s 707 mmHg 78%
02:00 +1°C° 0 mm 3 m/s 707 mmHg 78%
03:00 0°C° 0 mm 3 m/s 707 mmHg 77%
04:00 0°C° 0 mm 3 m/s 708 mmHg 77%
05:00 0°C° 0 mm 3 m/s 708 mmHg 76%
06:00 0°C° 0 mm 3 m/s 708 mmHg 76%
07:00 +2°C° 0 mm 3 m/s 709 mmHg 63%
08:00 +6°C° 0 mm 2 m/s 709 mmHg 51%
09:00 +8°C° 0 mm 2 m/s 710 mmHg 38%
10:00 +10°C° 0 mm 2 m/s 710 mmHg 34%
11:00 +13°C° 0 mm 2 m/s 710 mmHg 29%
12:00 +15°C° 0 mm 2 m/s 710 mmHg 25%
13:00 +15°C° 0 mm 2 m/s 709 mmHg 24%
14:00 +14°C° 0 mm 3 m/s 709 mmHg 24%
15:00 +16°C° 0 mm 3 m/s 708 mmHg 23%
16:00 +13°C° 0 mm 3 m/s 709 mmHg 29%
17:00 +12°C° 0 mm 3 m/s 709 mmHg 35%
18:00 +10°C° 0 mm 3 m/s 709 mmHg 40%
19:00 +8°C° 0 mm 3 m/s 710 mmHg 46%
20:00 +5°C° 0 mm 3 m/s 710 mmHg 52%
21:00 +3°C° 0 mm 3 m/s 711 mmHg 58%
22:00 +2°C° 0 mm 3 m/s 711 mmHg 58%
23:00 +2°C° 0 mm 3 m/s 711 mmHg 59%

Depois de amanhã, 13 Abril, Terça-feira

Tempo Temperatura Precipitação Vento Pressão Humidade
00:00 +2°C° 0 mm 2 m/s 711 mmHg 60%
01:00 +2°C° 0 mm 2 m/s 711 mmHg 59%
02:00 +1°C° 0 mm 2 m/s 711 mmHg 57%
03:00 +1°C° 0 mm 2 m/s 711 mmHg 55%
04:00 +2°C° 0 mm 1 m/s 711 mmHg 53%
05:00 +2°C° 0 mm 1 m/s 711 mmHg 51%
06:00 +2°C° 0 mm 1 m/s 711 mmHg 49%
07:00 +5°C° 0 mm 1 m/s 711 mmHg 44%
08:00 +8°C° 0 mm 1 m/s 712 mmHg 38%
09:00 +10°C° 0 mm 1 m/s 712 mmHg 33%
10:00 +12°C° 0 mm 2 m/s 712 mmHg 31%
11:00 +13°C° 0 mm 2 m/s 711 mmHg 30%
12:00 +14°C° 0 mm 2 m/s 711 mmHg 29%
13:00 +15°C° 0 mm 2 m/s 711 mmHg 29%
14:00 +14°C° 0 mm 3 m/s 710 mmHg 30%
15:00 +16°C° 0 mm 3 m/s 710 mmHg 30%
16:00 +15°C° 0 mm 2 m/s 709 mmHg 35%
17:00 +13°C° 0 mm 2 m/s 709 mmHg 40%
18:00 +12°C° 0 mm 1 m/s 709 mmHg 45%
19:00 +11°C° 0 mm 1 m/s 709 mmHg 48%
20:00 +9°C° 0 mm 1 m/s 710 mmHg 50%
21:00 +8°C° 0 mm 1 m/s 710 mmHg 53%
22:00 +7°C° 0 mm 1 m/s 710 mmHg 56%
23:00 +7°C° 0 mm 1 m/s 710 mmHg 59%

14 Abril, Quarta-feira

Tempo Temperatura Precipitação Vento Pressão Humidade
00:00 +6°C° 0 mm 1 m/s 710 mmHg 61%
01:00 +6°C° 0 mm 1 m/s 710 mmHg 63%
02:00 +5°C° 0 mm 1 m/s 709 mmHg 65%
03:00 +5°C° 0 mm 1 m/s 709 mmHg 68%
04:00 +5°C° 0 mm 1 m/s 709 mmHg 68%
05:00 +5°C° 0 mm 1 m/s 709 mmHg 68%
06:00 +5°C° 0 mm 1 m/s 709 mmHg 69%
07:00 +7°C° 0 mm 1 m/s 709 mmHg 63%
08:00 +9°C° 0 mm 2 m/s 709 mmHg 58%
09:00 +12°C° 0 mm 2 m/s 709 mmHg 52%
10:00 +13°C° 0 mm 2 m/s 709 mmHg 48%
11:00 +14°C° 0 mm 2 m/s 709 mmHg 44%
12:00 +16°C° 0 mm 2 m/s 708 mmHg 40%
13:00 +16°C° 0 mm 2 m/s 708 mmHg 39%
14:00 +17°C° 0 mm 2 m/s 707 mmHg 37%
15:00 +17°C° 0 mm 2 m/s 707 mmHg 35%
16:00 +16°C° 0 mm 2 m/s 707 mmHg 42%
17:00 +14°C° 0 mm 3 m/s 706 mmHg 48%
18:00 +13°C° 0 mm 3 m/s 706 mmHg 54%
19:00 +11°C° 0 mm 3 m/s 707 mmHg 66%
20:00 +9°C° 0 mm 2 m/s 707 mmHg 77%
21:00 +7°C° 0 mm 2 m/s 708 mmHg 89%
22:00 +7°C° 0 mm 2 m/s 708 mmHg 88%
23:00 +7°C° 0 mm 1 m/s 708 mmHg 88%

15 Abril, Quinta-feira

Tempo Temperatura Precipitação Vento Pressão Humidade
00:00 +7°C° 0 mm 1 m/s 708 mmHg 87%
01:00 +8°C° 0 mm 1 m/s 708 mmHg 86%
02:00 +8°C° 0 mm 1 m/s 708 mmHg 85%
03:00 +8°C° 0 mm 1 m/s 708 mmHg 85%
04:00 +8°C° 0 mm 1 m/s 708 mmHg 84%
05:00 +8°C° 0 mm 1 m/s 708 mmHg 82%
06:00 +8°C° 0 mm 1 m/s 708 mmHg 81%
07:00 +9°C° 0 mm 1 m/s 708 mmHg 77%
08:00 +9°C° 0 mm 1 m/s 708 mmHg 73%
09:00 +10°C° 0 mm 1 m/s 708 mmHg 69%
10:00 +11°C° 0 mm 1 m/s 708 mmHg 63%
11:00 +13°C° 0 mm 2 m/s 707 mmHg 56%
12:00 +14°C° 0 mm 2 m/s 707 mmHg 50%
13:00 +14°C° 0 mm 2 m/s 706 mmHg 48%
14:00 +14°C° 0 mm 3 m/s 706 mmHg 46%
15:00 +14°C° 0 mm 3 m/s 705 mmHg 44%
16:00 +13°C° 0 mm 3 m/s 705 mmHg 48%
17:00 +12°C° 0 mm 3 m/s 705 mmHg 52%
18:00 +11°C° 0 mm 3 m/s 705 mmHg 56%
19:00 +9°C° 0.1 mm 3 m/s 706 mmHg 60%
20:00 +8°C° 0.1 mm 3 m/s 706 mmHg 64%
21:00 +7°C° 0.1 mm 2 m/s 707 mmHg 68%
22:00 +7°C° 0.2 mm 2 m/s 707 mmHg 71%
23:00 +6°C° 0.2 mm 2 m/s 706 mmHg 74%

16 Abril, Sexta-feira

Tempo Temperatura Precipitação Vento Pressão Humidade
00:00 +7°C° 0.2 mm 1 m/s 706 mmHg 77%
01:00 +7°C° 0.1 mm 1 m/s 706 mmHg 80%
02:00 +6°C° 0.1 mm 1 m/s 706 mmHg 83%
03:00 +6°C° 0.1 mm 1 m/s 706 mmHg 86%
04:00 +6°C° 0.1 mm 1 m/s 706 mmHg 86%
05:00 +6°C° 0.1 mm 1 m/s 706 mmHg 87%
06:00 +6°C° 0.1 mm 1 m/s 706 mmHg 88%
07:00 +7°C° 0 mm 1 m/s 706 mmHg 81%
08:00 +7°C° 0 mm 1 m/s 706 mmHg 74%
09:00 +8°C° 0 mm 1 m/s 706 mmHg 67%
10:00 +9°C° 0 mm 1 m/s 706 mmHg 63%
11:00 +10°C° 0 mm 1 m/s 706 mmHg 60%
12:00 +11°C° 0 mm 1 m/s 705 mmHg 56%
13:00 +11°C° 0 mm 1 m/s 705 mmHg 53%
14:00 +12°C° 0 mm 1 m/s 705 mmHg 50%
15:00 +13°C° 0 mm 1 m/s 704 mmHg 47%
16:00 +12°C° 0 mm 1 m/s 704 mmHg 49%
17:00 +12°C° 0 mm 1 m/s 704 mmHg 51%
18:00 +11°C° 0 mm 1 m/s 704 mmHg 53%
19:00 +10°C° 0 mm 1 m/s 705 mmHg 58%
20:00 +8°C° 0 mm 2 m/s 705 mmHg 62%
21:00 +7°C° 0 mm 2 m/s 706 mmHg 66%
22:00 +7°C° 0 mm 2 m/s 706 mmHg 71%
23:00 +7°C° 0 mm 1 m/s 706 mmHg 75%
Mostrar mais